Regional Weather Roundup
Issued by NWS Cleveland, OH

Home | Current Version | Previous Version | Graphics & Text | Print | Product List | Glossary Off
Versions: 1 2 3 4 5 6 7 8 9 10 11 12 13 14 15 16 17 18 19 20 21 22 23 24 25 26 27 28 29 30 31 32 33 34 35 36 37 38 39 40 41 42 43 44 45 46 47 48 49 50

230
ASUS41 KCLE 282112
RWRCLE
OHIO REGIONAL WEATHER ROUNDUP
NATIONAL WEATHER SERVICE WILMINGTON, OH
500 PM EDT FRI APR 28 2017

NOTE: "FAIR" INDICATES FEW OR NO CLOUDS BELOW 12,000 FEET WITH NO
SIGNIFICANT WEATHER AND/OR OBSTRUCTIONS TO VISIBILITY.

OHZ001>008-015>018-024>027-034-035-043-044-282200-
   NORTHWEST OHIO

CITY           SKY/WX    TMP DP  RH WIND       PRES   REMARKS
DEFIANCE       LGT RAIN  55  49  80 S8        29.98F
FINDLAY        LGT RAIN  58  49  72 CALM      29.99F
TOLEDO EXPRESS LGT RAIN  58  47  66 SW9G18    30.00R
TOLEDO EXEC    LGT RAIN  59  50  72 S10       30.01R
LIMA           CLOUDY    56  52  86 E5        29.97F
$$

OHZ009>014-019>023-028>033-038-089-282200-
   NORTHEAST OHIO

CITY           SKY/WX    TMP DP  RH WIND       PRES   REMARKS
CLE-HOPKINS    LGT RAIN  62  46  55 SW5       30.05S
CLE-LAKEFRONT  PTSUNNY   63  47  55 S8        30.04R
CUY CO. ARPT   CLOUDY    64  46  52 S9        30.04R
LORAIN-ELYRIA  LGT RAIN  60  46  59 S7        30.04R
ASHTABULA      PTSUNNY   64  44  48 S10       30.05R
AKRON-CANTON   CLOUDY    66  47  50 W6        30.04R
WOOSTER        CLOUDY    63  48  58 CALM      30.03S
MANSFIELD      CLOUDY    62  49  62 CALM      30.02F
YOUNGSTOWN     LGT RAIN  65  48  54 NE3       30.02F
$$

OHZ042-051>053-060>062-070>072-077>081-282200-
  SOUTHWEST OHIO

CITY           SKY/WX    TMP DP  RH WIND       PRES   REMARKS
CINC-COVINGTON PTSUNNY   74  56  53 SE10      29.90F
CINC-LUNKEN    PTSUNNY   74  60  61 VRB6      29.91F
HAMILTON       PTSUNNY   71  57  61 E7        29.92F
DAYTON         CLOUDY    64  50  60 E9        29.95F
WRIGHT-PAT AFB PTSUNNY   68  51  54 E6        29.94F
DAYTON GENERAL FAIR      68  53  58 E7        29.94F
WILMINGTON     PTSUNNY   70  56  61 S12       29.95F
$$

OHZ036-037-039>041-045>050-054>059-063>069-073>076-082>088-282200-
  CENTRAL AND SOUTHEAST OHIO

CITY           SKY/WX    TMP DP  RH WIND       PRES   REMARKS
COLUMBUS       CLOUDY    71  49  45 NE6       29.97F
OSU AIRPORT    FAIR      68  49  50 NE3       29.98F
BOLTON FIELD   MOSUNNY   68  52  56 E3        29.98F
RICKENBACK AFB FAIR      72  51  48 CALM      29.97S
NEWARK         FAIR      72  46  39 E6        29.98S
MARION         FAIR      63  46  54 SE6       30.00F
LANCASTER      FAIR      74  52  46 SE6       29.98S
ZANESVILLE     FAIR      72  49  44 N6        29.99F
NEW PHILLY     PTSUNNY   70  42  36 CALM      30.02S
$$




USA.gov is the U.S. government's official web portal to all federal, state and local government web resources and services.